QPF
0.01 0.01 0.01 0.01 0.01 0.01 0.01 0.00 0.00 0.00 0.01 0.04 0.05 0.04 0.03 0.03 0.03 0.02 0.02 0.01 0.00 0.00 0.00 0.01 0.01 0.00 0.00 0.01 0.01 0.01 0.01 0.01 0.01 0.01 0.01 0.01 0.01 0.01 0.01 0.02 0.02 0.02 0.02
0.00 0.01 0.01 0.01 0.01 0.01 0.01 0.00 0.00 0.00 0.00 0.01 0.02 0.03 0.02 0.02 0.02 0.02 0.02 0.01 0.00 0.00 0.00 0.00 0.00 0.00 0.00 0.00 0.01 0.01 0.01 0.01 0.01 0.01 0.01 0.01 0.01 0.01 0.01 0.01 0.02 0.02 0.02
0.00 0.00 0.01 0.01 0.01 0.01 0.01 0.01 0.00 0.00 0.00 0.00 0.00 0.01 0.01 0.01 0.01 0.01 0.01 0.00 0.00 0.00 0.00 0.00 0.00 0.00 0.00 0.00 0.00 0.00 0.00 0.01 0.01 0.01 0.01 0.00 0.01 0.01 0.01 0.01 0.01 0.01 0.01
0.00 0.00 0.00 0.01 0.00 0.00 0.00 0.00 0.00 0.00 0.00 0.00 0.00 0.00 0.00 0.00 0.00 0.00 0.00 0.00 0.00 0.00 0.00 0.00 0.00 0.00 0.00 0.00 0.01 0.01 0.01 0.01 0.01 0.01 0.01 0.01 0.01 0.01 0.01 0.01 0.01 0.01 0.01
0.00 0.00 0.00 0.00 0.00 0.00 0.00 0.00 0.00 0.00 0.00 0.00 0.00 0.00 0.00 0.00 0.00 0.00 0.00 0.00 0.00 0.00 0.00 0.00 0.00 0.00 0.00 0.01 0.01 0.01 0.01 0.01 0.01 0.01 0.01 0.01 0.01 0.01 0.01 0.01 0.01 0.01 0.01
0.00 0.00 0.00 0.00 0.00 0.00 0.00 0.00 0.00 0.00 0.00 0.00 0.00 0.00 0.00 0.00 0.00 0.00 0.00 0.00 0.00 0.00 0.00 0.00 0.00 0.00 0.00 0.01 0.01 0.01 0.01 0.01 0.01 0.01 0.01 0.01 0.01 0.01 0.01 0.01 0.01 0.01 0.01
0.00 0.00 0.00 0.00 0.00 0.00 0.00 0.00 0.00 0.00 0.00 0.00 0.00 0.00 0.00 0.00 0.00 0.00 0.00 0.00 0.00 0.00 0.00 0.00 0.00 0.00 0.00 0.00 0.01 0.01 0.01 0.01 0.01 0.01 0.01 0.01 0.01 0.01 0.01 0.01 0.01 0.01 0.01
0.00 0.00 0.00 0.00 0.00 0.00 0.00 0.00 0.00 0.00 0.00 0.00 0.00 0.00 0.00 0.00 0.00 0.00 0.00 0.00 0.00 0.00 0.00 0.00 0.00 0.00 0.00 0.01 0.01 0.01 0.01 0.01 0.01 0.01 0.01 0.01 0.01 0.01 0.01 0.02 0.02 0.02 0.02
0.01 0.01 0.00 0.00 0.00 0.00 0.00 0.00 0.00 0.00 0.00 0.00 0.00 0.00 0.00 0.00 0.00 0.00 0.00 0.00 0.00 0.00 0.00 0.00 0.01 0.01 0.01 0.01 0.01 0.01 0.01 0.01 0.01 0.01 0.01 0.01 0.01 0.01 0.01 0.01 0.02 0.02 0.02
0.00 0.00 0.00 0.00 0.00 0.01 0.01 0.00 0.00 0.00 0.00 0.00 0.00 0.00 0.00 0.00 0.00 0.00 0.00 0.00 0.00 0.00 0.00 0.00 0.01 0.01 0.01 0.01 0.01 0.01 0.01 0.01 0.01 0.01 0.01 0.01 0.01 0.01 0.01 0.01 0.01 0.01 0.01
0.00 0.00 0.00 0.00 0.00 0.00 0.01 0.00 0.00 0.00 0.00 0.00 0.00 0.00 0.00 0.00 0.00 0.00 0.00 0.00 0.00 0.00 0.00 0.00 0.00 0.01 0.01 0.01 0.01 0.01 0.01 0.01 0.01 0.01 0.01 0.01 0.01 0.01 0.01 0.01 0.01 0.01 0.01
0.00 0.00 0.00 0.00 0.00 0.00 0.01 0.01 0.00 0.00 0.00 0.00 0.00 0.00 0.00 0.00 0.00 0.00 0.00 0.00 0.00 0.00 0.01 0.01 0.00 0.01 0.01 0.01 0.01 0.01 0.01 0.02 0.01 0.01 0.01 0.01 0.01 0.01 0.01 0.02 0.02 0.02 0.01
0.00 0.00 0.00 0.00 0.00 0.00 0.00 0.00 0.00 0.00 0.00 0.00 0.00 0.00 0.00 0.00 0.00 0.00 0.01 0.01 0.01 0.01 0.01 0.01 0.01 0.01 0.01 0.01 0.01 0.01 0.01 0.01 0.01 0.01 0.01 0.01 0.01 0.02 0.02 0.02 0.01 0.01 0.01
0.00 0.00 0.00 0.00 0.00 0.00 0.00 0.00 0.00 0.00 0.00 0.00 0.00 0.00 0.00 0.00 0.00 0.01 0.01 0.01 0.01 0.01 0.01 0.02 0.01 0.01 0.01 0.01 0.01 0.02 0.01 0.01 0.01 0.01 0.01 0.01 0.02 0.02 0.02 0.02 0.02 0.01 0.01
0.00 0.00 0.00 0.00 0.00 0.00 0.00 0.00 0.00 0.00 0.00 0.00 0.00 0.00 0.00 0.00 0.01 0.02 0.03 0.02 0.02 0.02 0.02 0.03 0.03 0.02 0.02 0.02 0.01 0.01 0.02 0.02 0.02 0.02 0.02 0.02 0.02 0.02 0.02 0.01 0.01 0.01 0.01
0.01 0.00 0.00 0.00 0.00 0.00 0.00 0.00 0.00 0.00 0.00 0.00 0.00 0.00 0.00 0.00 0.01 0.02 0.04 0.03 0.02 0.03 0.03 0.03 0.03 0.03 0.02 0.02 0.02 0.02 0.02 0.02 0.02 0.02 0.02 0.02 0.02 0.02 0.02 0.01 0.01 0.01 0.01
0.01 0.00 0.00 0.00 0.00 0.00 0.00 0.00 0.00 0.00 0.00 0.00 0.00 0.00 0.00 0.01 0.01 0.02 0.04 0.03 0.03 0.03 0.03 0.02 0.02 0.02 0.02 0.02 0.02 0.02 0.02 0.02 0.02 0.03 0.02 0.02 0.02 0.02 0.01 0.01 0.01 0.01 0.01
0.00 0.01 0.01 0.00 0.00 0.00 0.01 0.00 0.00 0.00 0.00 0.00 0.00 0.00 0.01 0.01 0.01 0.02 0.03 0.04 0.03 0.02 0.02 0.02 0.02 0.02 0.02 0.02 0.02 0.02 0.02 0.02 0.03 0.02 0.02 0.02 0.01 0.01 0.01 0.01 0.01 0.01 0.01
0.01 0.01 0.00 0.00 0.00 0.00 0.01 0.01 0.01 0.01 0.01 0.01 0.01 0.00 0.01 0.01 0.02 0.02 0.03 0.03 0.02 0.02 0.02 0.02 0.02 0.02 0.02 0.02 0.02 0.02 0.03 0.03 0.02 0.02 0.02 0.01 0.01 0.01 0.01 0.01 0.01 0.01 0.01
0.00 0.01 0.01 0.01 0.00 0.00 0.00 0.00 0.00 0.01 0.01 0.01 0.01 0.01 0.01 0.02 0.02 0.02 0.02 0.02 0.02 0.02 0.02 0.02 0.02 0.02 0.02 0.02 0.02 0.02 0.03 0.03 0.03 0.02 0.02 0.02 0.01 0.01 0.01 0.01 0.01 0.01 0.01
0.00 0.00 0.00 0.00 0.00 0.00 0.00 0.00 0.00 0.01 0.01 0.01 0.01 0.01 0.01 0.02 0.02 0.01 0.02 0.02 0.02 0.02 0.02 0.02 0.03 0.03 0.03 0.03 0.03 0.03 0.03 0.03 0.02 0.02 0.02 0.02 0.02 0.02 0.01 0.01 0.01 0.01 0.01
0.00 0.00 0.00 0.00 0.00 0.00 0.00 0.00 0.01 0.01 0.01 0.01 0.01 0.01 0.02 0.02 0.01 0.01 0.02 0.02 0.02 0.02 0.02 0.02 0.03 0.03 0.03 0.03 0.03 0.03 0.03 0.03 0.02 0.02 0.02 0.02 0.02 0.02 0.01 0.01 0.01 0.01 0.01
0.00 0.00 0.00 0.00 0.00 0.00 0.01 0.01 0.01 0.01 0.01 0.01 0.02 0.02 0.02 0.02 0.01 0.01 0.02 0.02 0.02 0.02 0.02 0.02 0.03 0.03 0.03 0.03 0.03 0.03 0.02 0.02 0.02 0.02 0.02 0.02 0.02 0.02 0.02 0.02 0.01 0.01 0.01
0.01 0.00 0.00 0.00 0.00 0.01 0.01 0.01 0.01 0.01 0.01 0.02 0.02 0.02 0.02 0.02 0.02 0.02 0.02 0.02 0.02 0.02 0.02 0.02 0.02 0.02 0.02 0.03 0.03 0.02 0.02 0.02 0.02 0.02 0.02 0.02 0.02 0.01 0.01 0.02 0.02 0.01 0.01
0.01 0.01 0.01 0.01 0.01 0.01 0.01 0.01 0.01 0.01 0.01 0.02 0.02 0.02 0.02 0.02 0.02 0.02 0.02 0.02 0.02 0.02 0.02 0.02 0.02 0.02 0.02 0.02 0.02 0.02 0.02 0.02 0.03 0.02 0.02 0.02 0.02 0.02 0.02 0.02 0.02 0.02 0.02
0.01 0.01 0.01 0.01 0.01 0.01 0.01 0.01 0.01 0.01 0.02 0.02 0.02 0.02 0.02 0.03 0.03 0.02 0.03 0.03 0.03 0.03 0.02 0.02 0.02 0.02 0.02 0.02 0.02 0.02 0.02 0.02 0.02 0.02 0.03 0.03 0.03 0.02 0.02 0.02 0.02 0.02 0.02
MSLP
1017.29 1017.47 1017.63 1017.73 1017.77 1017.75 1017.68 1017.58 1017.45 1017.31 1017.17 1017.03 1016.89 1016.75 1016.61 1016.47 1016.33 1016.21 1016.11 1016.05 1016.02 1016.02 1016.05 1016.10 1016.15 1016.19 1016.20 1016.17 1016.10 1016.01 1015.91 1015.81 1015.73 1015.69 1015.69 1015.72 1015.78 1015.86 1015.93 1015.99 1016.01 1015.98 1015.91
1017.31 1017.48 1017.61 1017.69 1017.71 1017.67 1017.58 1017.45 1017.29 1017.11 1016.93 1016.75 1016.57 1016.39 1016.20 1016.02 1015.84 1015.67 1015.53 1015.42 1015.35 1015.33 1015.34 1015.39 1015.45 1015.52 1015.57 1015.60 1015.60 1015.58 1015.53 1015.49 1015.44 1015.41 1015.40 1015.42 1015.46 1015.51 1015.56 1015.59 1015.60 1015.58 1015.52
1017.40 1017.55 1017.65 1017.70 1017.69 1017.62 1017.50 1017.33 1017.14 1016.92 1016.71 1016.49 1016.26 1016.04 1015.81 1015.58 1015.36 1015.14 1014.95 1014.79 1014.67 1014.60 1014.59 1014.62 1014.68 1014.76 1014.84 1014.92 1014.98 1015.02 1015.04 1015.04 1015.04 1015.03 1015.03 1015.05 1015.07 1015.10 1015.13 1015.15 1015.16 1015.14 1015.09
1017.55 1017.67 1017.73 1017.74 1017.69 1017.58 1017.42 1017.21 1016.98 1016.74 1016.48 1016.22 1015.96 1015.70 1015.43 1015.15 1014.88 1014.61 1014.36 1014.15 1013.98 1013.86 1013.80 1013.80 1013.85 1013.93 1014.03 1014.14 1014.25 1014.34 1014.41 1014.47 1014.51 1014.53 1014.55 1014.58 1014.60 1014.63 1014.66 1014.68 1014.69 1014.68 1014.65
1017.71 1017.79 1017.82 1017.78 1017.68 1017.53 1017.32 1017.08 1016.81 1016.53 1016.24 1015.95 1015.65 1015.34 1015.03 1014.71 1014.39 1014.07 1013.76 1013.49 1013.26 1013.09 1012.99 1012.95 1012.97 1013.03 1013.14 1013.27 1013.40 1013.53 1013.65 1013.75 1013.83 1013.90 1013.95 1014.00 1014.05 1014.10 1014.15 1014.19 1014.22 1014.24 1014.23
1017.85 1017.89 1017.87 1017.79 1017.64 1017.44 1017.20 1016.92 1016.62 1016.30 1015.98 1015.65 1015.31 1014.96 1014.60 1014.24 1013.86 1013.49 1013.13 1012.80 1012.52 1012.30 1012.14 1012.05 1012.04 1012.08 1012.17 1012.30 1012.45 1012.60 1012.75 1012.89 1013.01 1013.12 1013.23 1013.32 1013.42 1013.51 1013.60 1013.68 1013.76 1013.81 1013.83
1017.92 1017.93 1017.87 1017.74 1017.55 1017.31 1017.02 1016.71 1016.38 1016.04 1015.68 1015.31 1014.94 1014.54 1014.14 1013.72 1013.29 1012.86 1012.45 1012.07 1011.73 1011.46 1011.25 1011.12 1011.07 1011.08 1011.15 1011.27 1011.41 1011.58 1011.75 1011.92 1012.08 1012.24 1012.40 1012.56 1012.72 1012.87 1013.03 1013.18 1013.31 1013.41 1013.49
1017.90 1017.88 1017.78 1017.61 1017.38 1017.11 1016.80 1016.46 1016.11 1015.73 1015.35 1014.94 1014.52 1014.08 1013.62 1013.15 1012.67 1012.18 1011.72 1011.29 1010.90 1010.58 1010.34 1010.17 1010.08 1010.06 1010.10 1010.20 1010.34 1010.50 1010.69 1010.88 1011.09 1011.30 1011.52 1011.75 1011.98 1012.22 1012.45 1012.68 1012.88 1013.05 1013.18
1017.80 1017.74 1017.60 1017.40 1017.14 1016.84 1016.51 1016.16 1015.79 1015.39 1014.98 1014.54 1014.08 1013.59 1013.08 1012.55 1012.01 1011.47 1010.96 1010.48 1010.06 1009.71 1009.42 1009.22 1009.10 1009.06 1009.08 1009.16 1009.29 1009.45 1009.64 1009.86 1010.09 1010.35 1010.63 1010.93 1011.25 1011.57 1011.89 1012.20 1012.48 1012.72 1012.91
1017.60 1017.50 1017.33 1017.10 1016.83 1016.51 1016.17 1015.81 1015.42 1015.01 1014.57 1014.11 1013.60 1013.07 1012.51 1011.93 1011.34 1010.76 1010.20 1009.69 1009.24 1008.86 1008.55 1008.33 1008.19 1008.13 1008.13 1008.20 1008.31 1008.47 1008.67 1008.90 1009.17 1009.47 1009.81 1010.17 1010.56 1010.96 1011.36 1011.75 1012.11 1012.42 1012.66
1017.33 1017.20 1016.99 1016.74 1016.44 1016.12 1015.78 1015.41 1015.02 1014.60 1014.14 1013.65 1013.11 1012.54 1011.93 1011.31 1010.68 1010.06 1009.48 1008.94 1008.47 1008.08 1007.76 1007.54 1007.39 1007.32 1007.31 1007.37 1007.47 1007.63 1007.83 1008.07 1008.36 1008.70 1009.08 1009.50 1009.95 1010.41 1010.88 1011.34 1011.76 1012.12 1012.42
1017.00 1016.83 1016.59 1016.31 1016.01 1015.68 1015.33 1014.96 1014.57 1014.14 1013.67 1013.16 1012.60 1012.00 1011.36 1010.71 1010.05 1009.41 1008.80 1008.26 1007.78 1007.38 1007.07 1006.85 1006.70 1006.63 1006.62 1006.68 1006.78 1006.93 1007.14 1007.39 1007.70 1008.06 1008.47 1008.92 1009.42 1009.93 1010.45 1010.95 1011.42 1011.83 1012.17
1016.62 1016.41 1016.14 1015.84 1015.52 1015.18 1014.83 1014.47 1014.07 1013.64 1013.17 1012.64 1012.07 1011.45 1010.79 1010.12 1009.44 1008.79 1008.18 1007.64 1007.16 1006.78 1006.48 1006.26 1006.12 1006.06 1006.06 1006.11 1006.22 1006.37 1006.58 1006.84 1007.16 1007.53 1007.96 1008.44 1008.97 1009.51 1010.06 1010.60 1011.09 1011.53 1011.89
1016.20 1015.95 1015.65 1015.33 1015.00 1014.66 1014.30 1013.93 1013.53 1013.09 1012.61 1012.08 1011.50 1010.87 1010.20 1009.52 1008.85 1008.20 1007.59 1007.05 1006.59 1006.22 1005.94 1005.74 1005.61 1005.56 1005.56 1005.62 1005.74 1005.90 1006.11 1006.38 1006.71 1007.09 1007.54 1008.04 1008.58 1009.14 1009.71 1010.26 1010.77 1011.22 1011.59
1015.74 1015.45 1015.13 1014.80 1014.45 1014.10 1013.74 1013.36 1012.95 1012.51 1012.02 1011.48 1010.89 1010.25 1009.58 1008.90 1008.23 1007.59 1007.00 1006.47 1006.03 1005.67 1005.40 1005.22 1005.11 1005.07 1005.09 1005.17 1005.29 1005.46 1005.69 1005.97 1006.31 1006.72 1007.18 1007.69 1008.24 1008.81 1009.39 1009.94 1010.45 1010.90 1011.28
1015.25 1014.94 1014.60 1014.25 1013.90 1013.53 1013.16 1012.76 1012.34 1011.88 1011.38 1010.83 1010.22 1009.58 1008.91 1008.23 1007.57 1006.94 1006.36 1005.85 1005.43 1005.09 1004.84 1004.67 1004.58 1004.56 1004.60 1004.69 1004.84 1005.03 1005.28 1005.58 1005.95 1006.37 1006.85 1007.38 1007.94 1008.52 1009.10 1009.65 1010.16 1010.60 1010.97
1014.72 1014.40 1014.06 1013.71 1013.34 1012.97 1012.58 1012.17 1011.73 1011.24 1010.72 1010.14 1009.52 1008.87 1008.20 1007.52 1006.86 1006.24 1005.67 1005.18 1004.77 1004.45 1004.22 1004.08 1004.01 1004.01 1004.07 1004.19 1004.37 1004.60 1004.88 1005.21 1005.61 1006.06 1006.57 1007.11 1007.69 1008.28 1008.86 1009.41 1009.91 1010.34 1010.70
1014.17 1013.85 1013.52 1013.17 1012.80 1012.42 1012.02 1011.58 1011.11 1010.60 1010.04 1009.44 1008.80 1008.13 1007.45 1006.77 1006.12 1005.51 1004.96 1004.48 1004.10 1003.80 1003.59 1003.47 1003.43 1003.47 1003.56 1003.72 1003.93 1004.20 1004.53 1004.91 1005.34 1005.83 1006.36 1006.93 1007.52 1008.12 1008.69 1009.24 1009.72 1010.14 1010.48
1013.59 1013.29 1012.97 1012.63 1012.27 1011.89 1011.47 1011.02 1010.52 1009.98 1009.39 1008.76 1008.09 1007.41 1006.72 1006.04 1005.40 1004.80 1004.27 1003.82 1003.46 1003.19 1003.02 1002.93 1002.93 1003.00 1003.14 1003.35 1003.61 1003.93 1004.30 1004.72 1005.20 1005.72 1006.28 1006.86 1007.46 1008.06 1008.63 1009.15 1009.62 1010.01 1010.32
1012.99 1012.71 1012.41 1012.10 1011.75 1011.36 1010.94 1010.46 1009.94 1009.38 1008.76 1008.11 1007.43 1006.74 1006.05 1005.38 1004.75 1004.18 1003.68 1003.27 1002.95 1002.72 1002.59 1002.55 1002.60 1002.72 1002.91 1003.17 1003.49 1003.85 1004.27 1004.73 1005.24 1005.78 1006.35 1006.94 1007.53 1008.11 1008.66 1009.15 1009.59 1009.95 1010.22
1012.35 1012.10 1011.83 1011.53 1011.20 1010.82 1010.40 1009.92 1009.39 1008.81 1008.19 1007.53 1006.85 1006.17 1005.50 1004.86 1004.27 1003.74 1003.29 1002.92 1002.66 1002.49 1002.41 1002.43 1002.53 1002.71 1002.95 1003.26 1003.62 1004.03 1004.48 1004.97 1005.49 1006.04 1006.60 1007.16 1007.72 1008.26 1008.76 1009.21 1009.60 1009.91 1010.13
1011.67 1011.44 1011.20 1010.92 1010.61 1010.25 1009.84 1009.37 1008.85 1008.28 1007.67 1007.04 1006.39 1005.74 1005.12 1004.53 1003.99 1003.53 1003.14 1002.85 1002.65 1002.55 1002.53 1002.61 1002.77 1003.00 1003.30 1003.65 1004.05 1004.48 1004.94 1005.43 1005.94 1006.46 1006.98 1007.49 1007.99 1008.46 1008.90 1009.28 1009.60 1009.85 1010.01
1010.94 1010.73 1010.51 1010.26 1009.97 1009.63 1009.24 1008.80 1008.31 1007.78 1007.22 1006.64 1006.05 1005.47 1004.93 1004.42 1003.97 1003.59 1003.29 1003.08 1002.96 1002.93 1002.98 1003.12 1003.33 1003.61 1003.93 1004.31 1004.71 1005.15 1005.59 1006.05 1006.51 1006.97 1007.42 1007.86 1008.27 1008.65 1008.99 1009.28 1009.53 1009.70 1009.81
1010.16 1009.97 1009.76 1009.53 1009.27 1008.97 1008.62 1008.23 1007.79 1007.33 1006.84 1006.34 1005.85 1005.37 1004.93 1004.53 1004.19 1003.92 1003.71 1003.59 1003.55 1003.59 1003.70 1003.89 1004.13 1004.42 1004.76 1005.13 1005.52 1005.92 1006.32 1006.72 1007.10 1007.47 1007.82 1008.15 1008.46 1008.73 1008.97 1009.17 1009.32 1009.43 1009.47
1009.37 1009.18 1008.98 1008.78 1008.54 1008.28 1007.98 1007.66 1007.30 1006.92 1006.54 1006.15 1005.78 1005.43 1005.11 1004.83 1004.61 1004.45 1004.35 1004.31 1004.34 1004.44 1004.59 1004.80 1005.05 1005.34 1005.66 1005.99 1006.33 1006.67 1006.99 1007.30 1007.59 1007.85 1008.09 1008.30 1008.49 1008.65 1008.78 1008.89 1008.96 1009.00 1008.99
1008.58 1008.39 1008.21 1008.03 1007.83 1007.61 1007.37 1007.12 1006.86 1006.59 1006.32 1006.06 1005.82 1005.60 1005.42 1005.28 1005.17 1005.12 1005.11 1005.14 1005.23 1005.35 1005.52 1005.73 1005.96 1006.21 1006.48 1006.75 1007.01 1007.27 1007.50 1007.70 1007.88 1008.03 1008.15 1008.25 1008.32 1008.38 1008.42 1008.44 1008.44 1008.43 1008.38
Thickness
5557 5557 5557 5558 5558 5558 5558 5559 5559 5560 5560 5560 5560 5560 5561 5561 5561 5561 5561 5560 5560 5560 5559 5559 5559 5558 5558 5558 5558 5557 5557 5557 5560 5562 5560 5558 5556 5556 5555 5554 5554 5553 5553
5547 5547 5548 5548 5549 5549 5550 5550 5550 5550 5551 5551 5551 5551 5552 5552 5552 5552 5552 5551 5551 5551 5551 5551 5550 5549 5549 5549 5549 5549 5549 5548 5550 5552 5551 5549 5547 5546 5546 5545 5545 5544 5543
5537 5538 5539 5539 5539 5539 5540 5540 5540 5540 5541 5541 5542 5542 5542 5542 5542 5542 5543 5542 5542 5542 5542 5542 5542 5541 5541 5541 5541 5541 5541 5540 5539 5540 5541 5539 5538 5536 5536 5536 5535 5535 5534
5526 5527 5528 5529 5529 5529 5529 5529 5530 5530 5531 5532 5532 5532 5533 5533 5533 5533 5532 5532 5532 5532 5532 5532 5532 5532 5533 5532 5532 5532 5532 5531 5530 5530 5530 5529 5528 5527 5526 5526 5526 5526 5525
5516 5516 5517 5518 5518 5519 5519 5519 5520 5520 5521 5521 5522 5522 5522 5523 5523 5522 5522 5522 5523 5523 5523 5523 5523 5522 5522 5522 5522 5523 5522 5522 5521 5521 5520 5519 5519 5517 5518 5517 5517 5516 5516
5506 5506 5506 5507 5507 5508 5508 5509 5509 5510 5510 5511 5512 5512 5512 5512 5512 5511 5511 5512 5513 5513 5513 5513 5513 5512 5512 5511 5511 5511 5511 5512 5512 5511 5512 5512 5512 5510 5509 5507 5505 5505 5507
5494 5494 5495 5495 5496 5496 5497 5497 5498 5499 5500 5500 5501 5502 5503 5503 5501 5501 5500 5500 5502 5503 5503 5503 5503 5503 5501 5502 5502 5501 5501 5500 5501 5502 5503 5504 5503 5501 5499 5497 5495 5494 5496
5482 5483 5483 5483 5484 5484 5485 5486 5487 5488 5488 5489 5489 5490 5491 5491 5490 5489 5488 5489 5490 5491 5492 5492 5492 5492 5492 5491 5492 5493 5493 5493 5492 5491 5493 5494 5492 5490 5488 5487 5485 5483 5482
5470 5471 5471 5471 5472 5472 5473 5475 5475 5475 5476 5476 5477 5477 5479 5480 5478 5477 5476 5477 5479 5480 5480 5480 5480 5480 5480 5478 5479 5481 5482 5483 5482 5481 5481 5481 5479 5478 5476 5475 5474 5472 5474
5458 5459 5459 5459 5460 5461 5461 5462 5462 5462 5463 5463 5464 5465 5466 5467 5466 5464 5462 5464 5467 5469 5469 5469 5467 5467 5467 5466 5466 5469 5471 5472 5472 5471 5469 5469 5469 5467 5465 5465 5464 5463 5462
5445 5446 5446 5446 5447 5448 5448 5448 5448 5449 5450 5451 5451 5453 5453 5453 5453 5451 5449 5450 5453 5455 5456 5457 5457 5455 5454 5453 5453 5456 5459 5459 5459 5459 5458 5458 5457 5456 5455 5453 5452 5451 5451
5432 5433 5434 5434 5434 5434 5434 5435 5435 5435 5436 5437 5438 5440 5440 5440 5440 5439 5437 5436 5437 5439 5442 5444 5444 5442 5441 5441 5442 5444 5445 5444 5446 5446 5446 5446 5445 5444 5442 5441 5439 5438 5438
5420 5420 5421 5421 5421 5421 5420 5421 5422 5422 5422 5424 5425 5427 5428 5428 5427 5426 5425 5425 5425 5425 5428 5429 5429 5429 5428 5429 5430 5431 5432 5432 5434 5434 5434 5434 5432 5431 5429 5427 5426 5426 5425
5407 5408 5408 5408 5408 5408 5408 5408 5408 5410 5411 5411 5412 5413 5415 5415 5415 5414 5414 5414 5413 5413 5414 5415 5415 5415 5415 5417 5418 5419 5420 5421 5422 5422 5422 5421 5419 5417 5416 5416 5415 5414 5414
5394 5394 5394 5394 5395 5396 5396 5397 5397 5399 5398 5398 5400 5400 5401 5404 5405 5402 5401 5402 5402 5402 5401 5402 5403 5404 5405 5407 5407 5407 5408 5409 5409 5409 5409 5408 5407 5406 5405 5404 5403 5403 5404
5381 5382 5382 5382 5382 5382 5383 5385 5385 5384 5385 5384 5385 5385 5389 5389 5390 5390 5389 5389 5389 5389 5389 5391 5393 5394 5396 5397 5397 5398 5398 5398 5398 5398 5397 5397 5396 5396 5395 5393 5393 5393 5394
5368 5369 5369 5369 5369 5369 5370 5371 5373 5375 5373 5373 5374 5375 5376 5378 5379 5379 5379 5380 5380 5380 5381 5383 5385 5385 5386 5387 5388 5388 5388 5388 5387 5387 5387 5387 5386 5385 5385 5385 5384 5384 5384
5356 5355 5355 5356 5356 5357 5357 5358 5359 5362 5365 5367 5366 5366 5367 5368 5369 5370 5370 5370 5372 5374 5374 5376 5377 5378 5378 5379 5379 5379 5379 5379 5378 5378 5378 5378 5377 5377 5376 5377 5377 5376 5376
5345 5345 5345 5345 5345 5345 5346 5346 5348 5350 5352 5356 5358 5359 5359 5359 5360 5361 5361 5362 5365 5367 5368 5369 5370 5370 5371 5371 5371 5371 5371 5370 5370 5370 5370 5370 5369 5369 5369 5369 5369 5368 5368
5336 5335 5334 5334 5335 5336 5336 5337 5338 5340 5342 5345 5348 5350 5350 5350 5352 5354 5354 5355 5357 5359 5361 5362 5362 5363 5363 5364 5364 5364 5363 5363 5363 5363 5363 5362 5362 5362 5362 5362 5362 5362 5362
5326 5327 5324 5324 5326 5327 5327 5328 5330 5332 5334 5336 5339 5341 5341 5341 5344 5346 5347 5348 5350 5352 5353 5354 5355 5356 5356 5356 5357 5357 5357 5357 5357 5356 5356 5356 5356 5356 5356 5355 5355 5354 5354
5316 5317 5316 5316 5317 5318 5318 5319 5321 5323 5325 5327 5330 5332 5333 5334 5337 5339 5340 5342 5343 5344 5345 5346 5347 5349 5349 5350 5350 5351 5351 5352 5352 5351 5351 5350 5350 5350 5350 5349 5348 5348 5347
5307 5307 5307 5308 5308 5309 5310 5311 5312 5314 5316 5319 5321 5323 5325 5328 5330 5332 5333 5335 5336 5337 5338 5339 5340 5342 5343 5344 5344 5345 5347 5348 5348 5347 5346 5346 5345 5345 5344 5344 5343 5342 5342
5298 5299 5299 5300 5300 5301 5302 5304 5306 5308 5309 5311 5313 5316 5318 5321 5323 5325 5327 5328 5330 5331 5332 5333 5334 5336 5337 5338 5339 5340 5341 5342 5342 5342 5342 5342 5341 5340 5339 5338 5338 5337 5336
5291 5292 5292 5293 5294 5295 5297 5299 5301 5302 5303 5305 5307 5310 5312 5314 5317 5319 5320 5322 5323 5325 5326 5327 5329 5330 5332 5333 5334 5335 5336 5337 5337 5337 5337 5336 5336 5335 5334 5333 5333 5331 5330
5286 5287 5287 5288 5289 5291 5292 5294 5295 5296 5298 5300 5302 5304 5306 5308 5311 5313 5314 5316 5317 5319 5321 5322 5324 5326 5327 5329 5330 5331 5332 5333 5333 5333 5332 5332 5332 5331 5330 5329 5327 5326 5325